Location: Freemans Gardens
(41.6414°N, 83.6077°W)
Time: 03:36:31
(UTC+00:00)

Meteor 2-16 Rocket - Pass Details

Date: 29 October 2020
Orbit: 941 x 956 km, 82.6° (Epoch: 26 November)

Event Time Altitude Azimuth Distance (km) Brightness Sun altitude
Rises 23:09:41 0° 352° (N) 3,616 7.4 -7.6°
Reaches altitude 10° 23:12:11 10° 354° (N) 2,668 6.8 -8.1°
Maximum altitude 23:18:18 81° 82° (E) 961 4.4 -9.2°
Drops below altitude 10° 23:24:23 10° 170° (S) 2,657 6.8 -10.3°
Sets 23:26:52 0° 171° (S) 3,600 7.5 -10.8°
